GW0967 Weather Reports


time (UTC)temp
F
wind
direction
speed
knots
gust
knots
rain 1hr
in
rain 24hr
in
rain mn
in
humidity
%
barometer
mb
20260906211631 93 125 3.5 9.6 0.00 0.00 0.00 32 1013.0
20260906211126 93 178 7.0 11.3 0.00 0.00 0.00 32 1013.1
20260906210622 93 111 5.2 13.0 0.00 0.00 0.00 32 1013.1
20260906210116 92 158 4.3 13.9 0.00 0.00 0.00 33 1013.1
20260906205612 93 189 5.2 13.0 0.00 0.00 0.00 33 1013.1
20260906205109 92 158 4.3 9.6 0.00 0.00 0.00 34 1013.3
20260906204607 92 152 3.5 11.3 0.00 0.00 0.00 34 1013.3
20260906204103 92 182 7.8 11.3 0.00 0.00 0.00 34 1013.3
20260906203602 92 170 10.4 16.5 0.00 0.00 0.00 33 1013.4
20260906203057 93 165 3.5 12.2 0.00 0.00 0.00 34 1013.6
20260906202554 93 151 4.3 12.2 0.00 0.00 0.00 34 1013.6
20260906202053 92 201 2.6 11.3 0.00 0.00 0.00 34 1013.3
20260906201548 91 161 12.2 13.9 0.00 0.00 0.00 34 1013.6
20260906201048 91 173 9.6 13.9 0.00 0.00 0.00 35 1013.3
20260906200544 91 173 13.0 14.8 0.00 0.00 0.00 34 1013.7
20260906200039 92 178 9.6 14.8 0.00 0.00 0.00 34 1013.9
20260906195534 92 114 2.6 8.7 0.00 0.00 0.00 35 1013.8
20260906195031 92 113 4.3 7.8 0.00 0.00 0.00 34 1013.6
20260906194526 92 160 9.6 12.2 0.00 0.00 0.00 35 1013.3
20260906194022 91 135 5.2 10.4 0.00 0.00 0.00 36 1013.6
20260906193522 91 107 7.8 13.9 0.00 0.00 0.00 36 1013.6
20260906193017 91 210 2.6 7.8 0.00 0.00 0.00 36 1013.6
20260906192513 91 112 4.3 18.2 0.00 0.00 0.00 35 1013.6
20260906192012 91 131 4.3 10.4 0.00 0.00 0.00 36 1013.7
20260906191507 91 178 7.8 13.9 0.00 0.00 0.00 35 1013.8
20260906191006 91 140 5.2 9.6 0.00 0.00 0.00 36 1013.9
20260906190505 91 166 9.6 10.4 0.00 0.00 0.00 35 1014.0
20260906190000 91 172 3.5 13.0 0.00 0.00 0.00 37 1013.9
20260906185459 91 149 7.0 13.9 0.00 0.00 0.00 35 1014.0
20260906184958 91 168 15.6 16.5 0.00 0.00 0.00 35 1014.0
20260906184453 90 124 4.3 9.6 0.00 0.00 0.00 36 1013.9
20260906183949 91 144 5.2 13.9 0.00 0.00 0.00 35 1014.2
20260906183445 91 116 7.0 15.6 0.00 0.00 0.00 35 1014.2
20260906182940 91 167 4.3 13.0 0.00 0.00 0.00 35 1014.3
20260906182436 91 108 4.3 12.2 0.00 0.00 0.00 35 1014.3
20260906181931 91 134 2.6 9.6 0.00 0.00 0.00 36 1014.1
20260906181427 91 145 5.2 16.5 0.00 0.00 0.00 36 1014.5
20260906180922 91 155 7.0 13.9 0.00 0.00 0.00 36 1014.7
20260906180417 91 159 5.2 15.6 0.00 0.00 0.00 35 1014.5
20260906175915 91 156 3.5 9.6 0.00 0.00 0.00 35 1014.7
20260906175410 91 180 5.2 11.3 0.00 0.00 0.00 35 1014.7
20260906174909 90 160 3.5 11.3 0.00 0.00 0.00 35 1014.7
20260906174408 90 155 6.1 14.8 0.00 0.00 0.00 35 1014.7
20260906173903 91 118 5.2 7.8 0.00 0.00 0.00 35 1014.8
20260906173359 90 159 8.7 13.9 0.00 0.00 0.00 34 1015.1
20260906172858 90 175 4.3 13.0 0.00 0.00 0.00 35 1015.1
20260906172354 89 119 5.2 11.3 0.00 0.00 0.00 34 1015.0
20260906171849 89 188 2.6 13.0 0.00 0.00 0.00 35 1015.0
20260906171344 89 215 3.5 16.5 0.00 0.00 0.00 36 1015.1
20260906170839 89 153 5.2 11.3 0.00 0.00 0.00 36 1015.1
20260906170335 90 148 6.1 13.0 0.00 0.00 0.00 35 1015.3
20260906165832 89 133 7.0 10.4 0.00 0.00 0.00 36 1015.2
20260906165330 89 138 4.3 13.9 0.00 0.00 0.00 36 1015.4
20260906164826 89 229 4.3 13.0 0.00 0.00 0.00 36 1015.2
20260906164325 89 186 3.5 7.0 0.00 0.00 0.00 36 1015.5
20260906163821 89 179 7.0 8.7 0.00 0.00 0.00 35 1015.4
20260906163317 88 196 4.3 11.3 0.00 0.00 0.00 35 1015.5
20260906162814 88 151 11.3 13.0 0.00 0.00 0.00 35 1015.6
20260906162314 88 138 9.6 10.4 0.00 0.00 0.00 36 1015.5
20260906161809 88 146 7.0 7.8 0.00 0.00 0.00 36 1015.6
20260906161308 88 174 5.2 14.8 0.00 0.00 0.00 35 1015.3
20260906160807 87 178 4.3 10.4 0.00 0.00 0.00 37 1015.6
20260906160302 87 163 5.2 9.6 0.00 0.00 0.00 37 1015.4
20260906155759 86 235 4.3 11.3 0.00 0.00 0.00 37 1015.5
20260906155254 86 143 8.7 13.0 0.00 0.00 0.00 37 1015.4
20260906154749 86 150 9.6 12.2 0.00 0.00 0.00 38 1015.3
20260906154244 86 193 1.7 9.6 0.00 0.00 0.00 38 1015.4
20260906153743 85 289 5.2 14.8 0.00 0.00 0.00 38 1015.9
20260906153237 85 182 6.1 9.6 0.00 0.00 0.00 38 1015.3
20260906152733 85 169 11.3 12.2 0.00 0.00 0.00 39 1015.4
20260906152227 84 201 2.6 13.0 0.00 0.00 0.00 40 1015.5
20260906151727 84 173 2.6 14.8 0.00 0.00 0.00 41 1015.6
20260906151222 84 153 7.0 13.9 0.00 0.00 0.00 41 1015.4
20260906150718 83 173 7.0 12.2 0.00 0.00 0.00 41 1015.6
20260906150213 83 212 4.3 12.2 0.00 0.00 0.00 41 1015.6
20260906145712 83 223 3.5 11.3 0.00 0.00 0.00 43 1015.9
20260906145212 83 160 4.3 6.1 0.00 0.00 0.00 44 1015.9
20260906144711 82 160 5.2 20.9 0.00 0.00 0.00 43 1016.1
20260906144201 83 176 7.8 12.2 0.00 0.00 0.00 42 1016.3
20260906143701 82 208 2.6 5.2 0.00 0.00 0.00 44 1016.2
20260906143158 82 158 4.3 7.0 0.00 0.00 0.00 45 1016.1
20260906142657 82 206 4.3 7.0 0.00 0.00 0.00 46 1016.1
20260906142153 81 117 2.6 5.2 0.00 0.00 0.00 48 1016.0
20260906141651 80 197 1.7 5.2 0.00 0.00 0.00 48 1016.1
20260906141147 80 186 7.8 8.7 0.00 0.00 0.00 48 1016.1
20260906140646 79 185 2.6 7.0 0.00 0.00 0.00 49 1016.2
20260906140141 79 145 1.7 5.2 0.00 0.00 0.00 51 1016.1
20260906135638 78 220 2.6 5.2 0.00 0.00 0.00 52 1016.0
20260906135134 77 188 1.7 6.1 0.00 0.00 0.00 54 1016.1
20260906134629 75 180 3.5 5.2 0.00 0.00 0.00 58 1016.0
20260906134124 74 86 0.0 3.5 0.00 0.00 0.00 66 1016.1
20260906133620 72 118 1.7 2.6 0.00 0.00 0.00 67 1015.9
20260906133115 71 318 0.0 1.7 0.00 0.00 0.00 70 1016.0
20260906132610 70 119 0.0 0.0 0.00 0.00 0.00 72 1015.9
20260906132106 67 98 0.0 3.5 0.00 0.00 0.00 77 1015.8
20260906131601 65 309 0.0 1.7 0.00 0.00 0.00 81 1016.0
20260906131056 64 35 0.0 0.0 0.00 0.00 0.00 84 1016.1
20260906130555 63 318 1.7 2.6 0.00 0.00 0.00 85 1016.0
20260906130051 62 23 0.0 2.6 0.00 0.00 0.00 86 1016.2
20260906125543 62 50 0.0 2.6 0.00 0.00 0.00 88 1015.8
20260906125043 61 74 2.6 2.6 0.00 0.00 0.00 89 1015.9
20260906124538 61 142 0.0 0.0 0.00 0.00 0.00 89 1015.9
20260906124033 61 1 1.7 1.7 0.00 0.00 0.00 89 1015.8
20260906123532 61 80 0.0 1.7 0.00 0.00 0.00 88 1015.8
20260906123027 61 147 0.0 1.7 0.00 0.00 0.00 87 1015.8
20260906122521 62 144 2.6 2.6 0.00 0.00 0.00 86 1015.6
20260906122018 62 279 1.7 2.6 0.00 0.00 0.00 86 1015.5
20260906121513 62 134 1.7 2.6 0.00 0.00 0.00 85 1015.8
20260906121009 62 304 0.0 1.7 0.00 0.00 0.00 85 1015.9
20260906120504 62 260 1.7 2.6 0.00 0.00 0.00 84 1015.5
20260906120001 63 89 0.0 1.7 0.00 0.00 0.00 83 1015.6
20260906115456 64 269 0.0 1.7 0.00 0.00 0.00 81 1015.4
20260906114956 64 197 0.0 1.7 0.00 0.00 0.00 81 1015.6
20260906114450 64 293 0.0 3.5 0.00 0.00 0.00 81 1015.3
20260906113947 63 269 0.0 0.0 0.00 0.00 0.00 82 1015.4
20260906113445 64 66 0.0 1.7 0.00 0.00 0.00 81 1015.4
20260906112941 65 134 0.0 1.7 0.00 0.00 0.00 78 1015.3
20260906112436 66 196 0.0 1.7 0.00 0.00 0.00 77 1015.3
20260906111932 67 134 0.0 3.5 0.00 0.00 0.00 75 1015.3
20260906111431 67 48 4.3 4.3 0.00 0.00 0.00 73 1015.6
20260906110926 68 119 0.0 1.7 0.00 0.00 0.00 70 1015.0
20260906110422 68 326 0.0 1.7 0.00 0.00 0.00 70 1015.3
20260906105920 69 228 0.0 2.6 0.00 0.00 0.00 69 1015.4
20260906105416 69 89 0.0 1.7 0.00 0.00 0.00 69 1015.2
20260906104912 69 135 0.0 2.6 0.00 0.00 0.00 69 1015.2
20260906104410 69 192 1.7 6.1 0.00 0.00 0.00 69 1015.2
20260906103910 69 146 1.7 4.3 0.00 0.00 0.00 69 1015.1
20260906103408 69 174 2.6 5.2 0.00 0.00 0.00 69 1015.6
20260906102904 69 113 1.7 2.6 0.00 0.00 0.00 68 1015.6
20260906102403 69 224 0.0 4.3 0.00 0.00 0.00 68 1015.5
20260906101858 69 157 0.0 1.7 0.00 0.00 0.00 69 1015.5
20260906101353 70 137 1.7 4.3 0.00 0.00 0.00 68 1015.5
20260906100849 70 173 0.0 2.6 0.00 0.00 0.00 68 1015.5
20260906100348 69 200 3.5 3.5 0.00 0.00 0.00 68 1015.3
20260906095843 69 164 1.7 2.6 0.00 0.00 0.00 68 1015.4
20260906095339 70 102 0.0 2.6 0.00 0.00 0.00 67 1015.4
20260906094838 70 108 0.0 1.7 0.00 0.00 0.00 67 1015.2
20260906094333 71 129 0.0 0.0 0.00 0.00 0.00 65 1015.3
20260906093829 73 129 0.0 0.0 0.00 0.00 0.00 63 1015.6
20260906093325 74 117 0.0 2.6 0.00 0.00 0.00 61 1015.4
20260906092820 75 124 1.7 2.6 0.00 0.00 0.00 59 1015.0
20260906092320 76 171 1.7 3.5 0.00 0.00 0.00 57 1015.2
20260906091815 75 172 2.6 4.3 0.00 0.00 0.00 58 1015.1
20260906091312 75 217 0.0 5.2 0.00 0.00 0.00 59 1014.9
20260906090808 74 257 0.0 4.3 0.00 0.00 0.00 61 1015.0
20260906090307 73 174 1.7 1.7 0.00 0.00 0.00 63 1015.1
20260906085807 73 164 0.0 3.5 0.00 0.00 0.00 62 1015.0
20260906085307 74 62 1.7 1.7 0.00 0.00 0.00 62 1014.9
20260906084800 73 180 2.6 3.5 0.00 0.00 0.00 63 1014.9
20260906084300 72 61 0.0 1.7 0.00 0.00 0.00 64 1014.9
20260906083755 73 196 0.0 1.7 0.00 0.00 0.00 64 1014.9
20260906083251 73 60 0.0 1.7 0.00 0.00 0.00 64 1015.0
20260906082745 73 184 1.7 4.3 0.00 0.00 0.00 63 1015.1
20260906082240 72 215 0.0 5.2 0.00 0.00 0.00 66 1015.0
20260906081737 70 207 0.0 3.5 0.00 0.00 0.00 70 1015.1
20260906081231 68 55 0.0 3.5 0.00 0.00 0.00 76 1014.8
20260906080727 67 44 0.0 1.7 0.00 0.00 0.00 78 1015.0
20260906080224 67 105 1.7 2.6 0.00 0.00 0.00 79 1015.2
20260906075717 66 123 0.0 1.7 0.00 0.00 0.00 79 1015.3
20260906075212 67 30 0.0 0.0 0.00 0.00 0.00 79 1015.3
20260906074707 67 230 0.0 0.0 0.00 0.00 0.00 78 1015.4
20260906074207 67 163 0.0 1.7 0.00 0.00 0.00 78 1015.6
20260906073702 66 230 0.0 1.7 0.00 0.00 0.00 79 1015.9
20260906073157 66 239 0.0 1.7 0.00 0.00 0.00 80 1015.9
20260906072652 66 129 0.0 1.7 0.00 0.00 0.00 80 1015.8
20260906072148 65 247 1.7 2.6 0.00 0.00 0.00 81 1015.8
20260906071644 65 60 0.0 0.0 0.00 0.00 0.00 81 1015.8
20260906071143 65 106 1.7 1.7 0.00 0.00 0.00 81 1015.6
20260906070640 66 129 0.0 0.0 0.00 0.00 0.00 80 1015.6
20260906070136 66 142 0.0 0.0 0.00 0.00 0.00 79 1015.5
20260906065635 66 130 0.0 0.0 0.00 0.00 0.00 79 1015.8
20260906065131 66 102 0.0 1.7 0.00 0.00 0.00 80 1015.5
20260906064626 65 129 0.0 0.0 0.00 0.00 0.00 81 1015.8
20260906064121 66 147 0.0 0.0 0.00 0.00 0.00 80 1015.4
20260906063616 66 135 0.0 0.0 0.00 0.00 0.00 80 1015.4
20260906063112 66 143 0.0 1.7 0.00 0.00 0.00 79 1015.4
20260906062608 66 119 0.0 0.0 0.00 0.00 0.00 80 1015.3
20260906062106 66 119 0.0 0.0 0.00 0.00 0.00 79 1015.4
20260906061603 67 135 0.0 0.0 0.00 0.00 0.00 77 1015.1
20260906061102 67 129 0.0 0.0 0.00 0.00 0.00 75 1015.1
20260906060559 68 142 0.0 0.0 0.00 0.00 0.00 75 1014.9
20260906060056 68 50 0.0 0.0 0.00 0.00 0.00 74 1015.1
20260906055551 68 6 0.0 0.0 0.00 0.00 0.00 73 1015.1
20260906055046 68 44 0.0 0.0 0.00 0.00 0.00 73 1015.2
20260906054541 68 50 0.0 1.7 0.00 0.00 0.00 71 1015.2
20260906054036 68 6 0.0 1.7 0.00 0.00 0.00 72 1015.2
20260906053533 67 315 0.0 0.0 0.00 0.00 0.00 74 1015.3
20260906053028 67 147 0.0 0.0 0.00 0.00 0.00 75 1015.5
20260906052524 67 135 0.0 0.0 0.00 0.00 0.00 75 1015.8
20260906052021 67 135 0.0 0.0 0.00 0.00 0.00 75 1016.0
20260906051516 67 135 0.0 0.0 0.00 0.00 0.00 75 1016.0
20260906051011 67 50 0.0 1.7 0.00 0.00 0.00 74 1015.8
20260906050506 67 209 0.0 0.0 0.00 0.00 0.00 73 1015.8
20260906050000 67 103 0.0 0.0 0.00 0.00 0.00 73 1015.8
20260906045458 68 235 0.0 0.0 0.00 0.00 0.00 73 1015.6
20260906044955 68 269 0.0 1.7 0.00 0.00 0.00 73 1015.8
20260906044449 67 6 0.0 0.0 0.00 0.00 0.00 73 1015.9
20260906043946 68 135 0.0 1.7 0.00 0.00 0.00 72 1015.9
20260906043441 68 13 0.0 0.0 0.00 0.00 0.00 72 1015.6
20260906042937 68 309 0.0 0.0 0.00 0.00 0.00 72 1015.6
20260906042436 69 145 0.0 1.7 0.00 0.00 0.00 70 1015.9
20260906041931 69 130 0.0 1.7 0.00 0.00 0.00 68 1015.4
20260906041427 70 244 0.0 0.0 0.00 0.00 0.00 68 1015.1
20260906040926 70 246 0.0 1.7 0.00 0.00 0.00 68 1015.4
20260906040422 69 224 0.0 0.0 0.00 0.00 0.00 67 1015.4
20260906035917 69 347 0.0 1.7 0.00 0.00 0.00 67 1015.3
20260906035412 70 142 0.0 0.0 0.00 0.00 0.00 66 1015.6
20260906034908 70 142 0.0 0.0 0.00 0.00 0.00 65 1015.5
20260906034402 71 89 0.0 0.0 0.00 0.00 0.00 64 1015.3
20260906033858 70 319 1.7 1.7 0.00 0.00 0.00 64 1015.6
20260906033357 70 322 0.0 0.0 0.00 0.00 0.00 64 1015.2
20260906032853 70 322 0.0 0.0 0.00 0.00 0.00 64 1015.4
20260906032349 70 322 0.0 0.0 0.00 0.00 0.00 64 1015.5
20260906031844 69 129 0.0 0.0 0.00 0.00 0.00 67 1015.4
20260906031339 70 129 0.0 0.0 0.00 0.00 0.00 69 1015.4
20260906030839 70 230 0.0 0.0 0.00 0.00 0.00 68 1015.4
20260906030335 71 230 0.0 0.0 0.00 0.00 0.00 69 1015.4
20260906025829 71 230 0.0 0.0 0.00 0.00 0.00 68 1015.3
20260906025323 71 142 0.0 0.0 0.00 0.00 0.00 67 1015.2
20260906024822 72 142 0.0 0.0 0.00 0.00 0.00 66 1015.2
20260906024321 72 142 0.0 0.0 0.00 0.00 0.00 66 1015.0
20260906023817 73 15 0.0 0.0 0.00 0.00 0.00 63 1015.1
20260906023312 74 15 0.0 0.0 0.00 0.00 0.00 63 1015.3
20260906022808 74 129 0.0 0.0 0.00 0.00 0.00 62 1015.0
20260906022306 75 322 0.0 1.7 0.00 0.00 0.00 61 1015.0
20260906021759 75 142 0.0 0.0 0.00 0.00 0.00 61 1014.7
20260906021258 75 15 0.0 0.0 0.00 0.00 0.00 60 1014.9
20260906020753 76 343 0.0 0.0 0.00 0.00 0.00 59 1014.5
20260906020252 76 341 0.0 0.0 0.00 0.00 0.00 58 1014.5
20260906015753 77 333 0.0 0.0 0.00 0.00 0.00 58 1014.7
20260906015251 77 19 0.0 0.0 0.00 0.00 0.00 57 1014.5
20260906014746 78 19 0.0 0.0 0.00 0.00 0.00 56 1014.4
20260906014241 78 342 1.7 1.7 0.00 0.00 0.00 55 1014.4
20260906013737 79 241 0.0 0.0 0.00 0.00 0.00 55 1014.5
20260906013237 79 283 0.0 1.7 0.00 0.00 0.00 55 1014.7
20260906012733 80 355 0.0 1.7 0.00 0.00 0.00 54 1014.5
20260906012228 80 214 0.0 1.7 0.00 0.00 0.00 53 1014.5
20260906011723 81 255 0.0 3.5 0.00 0.00 0.00 52 1014.5
20260906011223 81 175 0.0 2.6 0.00 0.00 0.00 51 1014.8
20260906010718 81 269 0.0 2.6 0.00 0.00 0.00 50 1014.8
20260906010214 81 174 2.6 4.3 0.00 0.00 0.00 50 1014.8
20260906005709 82 230 2.6 2.6 0.00 0.00 0.00 49 1014.5
20260906005209 82 172 5.2 5.2 0.00 0.00 0.00 49 1014.8
20260906004707 83 233 2.6 3.5 0.00 0.00 0.00 46 1014.9
20260906004203 83 215 1.7 2.6 0.00 0.00 0.00 46 1014.7
20260906003658 84 168 3.5 4.3 0.00 0.00 0.00 45 1015.1
20260906003154 84 125 0.0 4.3 0.00 0.00 0.00 42 1014.9
20260906002654 85 165 2.6 9.6 0.00 0.00 0.00 40 1015.2
20260906002148 85 122 0.0 9.6 0.00 0.00 0.00 39 1015.2
20260906001644 85 145 2.6 3.5 0.00 0.00 0.00 40 1015.1
20260906001143 85 168 0.0 5.2 0.00 0.00 0.00 40 1015.3
20260906000639 85 142 2.6 7.0 0.00 0.00 0.00 39 1015.4
20260906000135 86 184 5.2 7.8 0.00 0.00 0.00 37 1015.4
20260905235633 87 178 4.3 5.2 0.00 0.00 0.00 36 1015.2
20260905235129 88 140 3.5 4.3 0.00 0.00 0.00 35 1014.9
20260905234624 89 124 2.6 6.1 0.00 0.00 0.00 33 1014.9
20260905234119 89 136 2.6 5.2 0.00 0.00 0.00 34 1014.8
20260905233614 89 180 0.0 2.6 0.00 0.00 0.00 33 1014.4
20260905233108 90 105 2.6 5.2 0.00 0.00 0.00 32 1014.5
20260905232604 89 348 1.7 2.6 0.00 0.00 0.00 35 1014.3
20260905232100 89 152 1.7 4.3 0.00 0.00 0.00 34 1014.4
20260905231554 90 154 4.3 5.2 0.00 0.00 0.00 33 1014.3
20260905231051 90 184 7.0 7.0 0.00 0.00 0.00 32 1014.2
20260905230550 89 100 1.7 4.3 0.00 0.00 0.00 34 1014.3
20260905230049 89 138 0.0 4.3 0.00 0.00 0.00 36 1014.3
20260905225549 90 139 4.3 6.1 0.00 0.00 0.00 34 1014.2
20260905225044 89 171 1.7 2.6 0.00 0.00 0.00 36 1014.3
20260905224544 88 99 3.5 6.1 0.00 0.00 0.00 35 1014.0
20260905224043 88 148 2.6 4.3 0.00 0.00 0.00 35 1014.0
20260905223541 88 157 3.5 4.3 0.00 0.00 0.00 34 1014.3
20260905223037 89 99 3.5 7.0 0.00 0.00 0.00 33 1014.2
20260905222537 89 169 0.0 3.5 0.00 0.00 0.00 35 1014.1
20260905222032 90 163 2.6 7.8 0.00 0.00 0.00 33 1014.0
20260905221528 91 83 2.6 8.7 0.00 0.00 0.00 33 1014.1
20260905221024 89 121 4.3 5.2 0.00 0.00 0.00 33 1014.0
20260905220520 89 95 3.5 5.2 0.00 0.00 0.00 35 1014.1
20260905220016 88 102 4.3 7.8 0.00 0.00 0.00 35 1014.1
20260905215515 90 71 4.3 8.7 0.00 0.00 0.00 33 1014.0
20260905215012 89 142 3.5 6.1 0.00 0.00 0.00 33 1014.4
20260905214507 90 98 3.5 10.4 0.00 0.00 0.00 33 1014.3
20260905214008 91 134 3.5 10.4 0.00 0.00 0.00 32 1014.4
20260905213503 90 99 2.6 3.5 0.00 0.00 0.00 31 1014.5
20260905212958 91 29 0.0 3.5 0.00 0.00 0.00 32 1014.8
20260905212453 91 172 1.7 2.6 0.00 0.00 0.00 31 1014.4